sat.trackr.live / text

‹ back to catalog

CAPELLA-14 (ACADIA-4)

NORAD 59444 · 2024-066C

PAYLOAD ACTIVE UNKNOWN

§ Identity

Operator
Country
US
Launch date
2024-04-07
Launch site
AFETR
Launch vehicle
Mass (kg)
RCS (m²)

External: N2YO · Heavens-Above · Gunter

§ Orbital elements

Epoch: 2026-05-25T00:19:40.225728Z

Period
95.17 min
Inclination
45.6051°
Eccentricity
0.0006584
Mean motion
15.13118521 rev/d
Perigee alt
522.2 km
Apogee alt
531.2 km
Semi-major
6,904.8 km
B*
8.9215e-4
RAAN
17.5519°
Arg perigee
189.5359°
Mean anomaly
170.5404°
Rev number
10,897

§ Raw data

CAPELLA-14 (ACADIA-4)1 59444U 24066C   26145.01366002  .00015837  00000+0  89215-3 0  99912 59444  45.6051  17.5519 0006584 189.5359 170.5404 15.13118521108974

JSON: /api/v1/satellites/59444 · /tle

For live sub-satellite position, see the globe view (requires WebGL).

§ Visibility from observer

Set your observer location to see the next 7 days of passes ≥ 10°. The values pass through the URL so the page stays shareable.

No JS? Fill the form by hand. The geolocation button needs JavaScript.